DW5818 Lorient FR current weather conditions

sailwx.info

Wind from 205 at 6 knots gusting 26

Air temperature 17.2° C
Dewpoint 13.9° C

Last reported at 2019-Jun-16 10:09 UTC.
Time now 2019-Jun-16 10:34 UTC

Location: N 47°42' W 003°15'.
View on Google Maps.

See reports from other nearby stations

  
Tides and Currents Weather Stations Pressure Air Temp Water Temp Dewpoint Dewpoint Depression Visibility Wind Speed Wind Dir Waves Ship Positions
date/time (UTC)wind fromknots sea level pressurealtimeterstation pressurevisibilityair tempwater tempwave heightnotes
2019-Jun-16 10:09 205 6 gusting 26 17.2
2019-Jun-16 10:04 208 10 gusting 25 17.2
2019-Jun-16 09:59 173 15 gusting 26 16.7
2019-Jun-16 09:54 183 8 gusting 22 16.7
2019-Jun-16 09:49 188 8 gusting 25 16.7
2019-Jun-16 09:44 178 9 gusting 29 16.7
2019-Jun-16 09:39 119 12 gusting 31 16.7
2019-Jun-16 09:34 332 12 gusting 31 16.7
2019-Jun-16 09:30 360 6 gusting 27 16.7
2019-Jun-16 09:24 360 8 gusting 27 16.7
2019-Jun-16 09:20 245 6 gusting 23 17.2
2019-Jun-16 09:14 208 9 gusting 23 17.2
2019-Jun-16 09:10 360 7 gusting 13 16.7
2019-Jun-16 09:04 189 6 gusting 16 16.7
2019-Jun-16 09:00 281 8 gusting 22 16.7
2019-Jun-16 08:54 213 9 gusting 23 16.7
2019-Jun-16 08:50 144 7 gusting 18 16.7
2019-Jun-16 08:44 211 9 gusting 17 16.7
2019-Jun-16 08:39 246 7 gusting 29 16.1
2019-Jun-16 08:34 193 12 gusting 29 16.1
2019-Jun-16 08:30 197 3 gusting 12 16.7
2019-Jun-16 08:24 194 5 gusting 23 16.1
2019-Jun-16 08:19 240 9 gusting 26 16.1
2019-Jun-16 08:14 216 6 gusting 23 16.1
2019-Jun-16 08:09 170 6 gusting 17 16.1
2019-Jun-16 08:04 194 2 gusting 19 16.1
2019-Jun-16 07:59 246 8 gusting 19 16.1
2019-Jun-16 07:54 202 2 gusting 13 16.1
2019-Jun-16 07:49 178 4 gusting 17 16.1
2019-Jun-16 07:44 262 7 gusting 17 16.1
2019-Jun-16 07:39 211 6 gusting 21 16.1
2019-Jun-16 07:34 240 11 gusting 21 16.1
2019-Jun-16 07:29 209 5 gusting 11 16.1
2019-Jun-16 07:24 254 2 gusting 13 15.6
2019-Jun-16 07:19 284 3 gusting 17 15.6
2019-Jun-16 07:14 219 3 gusting 17 15.6
2019-Jun-16 07:09 259 6 gusting 19 15.6
2019-Jun-16 07:04 174 6 gusting 19 15.6
2019-Jun-16 06:59 265 5 gusting 13 15.6
2019-Jun-16 06:54 227 5 gusting 13 15.6
2019-Jun-16 06:50 274 4 gusting 13 15.6
2019-Jun-16 06:44 188 6 gusting 15 15.6
2019-Jun-16 06:39 197 6 gusting 20 15.6
2019-Jun-16 06:34 206 8 gusting 20 15.6
2019-Jun-16 06:30 202 5 gusting 13 15.6
2019-Jun-16 06:24 209 6 gusting 16 15.0
2019-Jun-16 06:19 200 6 gusting 16 15.0
2019-Jun-16 06:14 259 4 gusting 11 15.0
2019-Jun-16 06:09 211 4 gusting 11 15.0
2019-Jun-16 06:04 195 1 gusting 17 15.0
2019-Jun-16 05:59 180 3 gusting 17 15.0
2019-Jun-16 05:54 204 1 gusting 15 15.0
2019-Jun-16 05:49 200 4 gusting 13 15.0
2019-Jun-16 05:44 191 4 gusting 13 15.0
2019-Jun-16 05:39 198 2 gusting 10 15.0
2019-Jun-16 05:34 190 5 gusting 15 15.0
2019-Jun-16 05:29 200 6 gusting 15 15.0
2019-Jun-16 05:24 207 4 gusting 10 15.0
2019-Jun-16 05:19 195 1 gusting 12 15.0
2019-Jun-16 05:15 193 4 gusting 12 15.0
2019-Jun-16 05:09 194 2 gusting 7 15.0
2019-Jun-16 05:04 210 3 gusting 7 15.0
2019-Jun-16 04:59 244 1 gusting 10 15.0
2019-Jun-16 04:55 192 0 gusting 10 15.0
2019-Jun-16 04:49 187 2 gusting 6 15.0
2019-Jun-16 04:44 200 1 gusting 6 15.0
2019-Jun-16 04:39 198 1 gusting 8 15.0
2019-Jun-16 04:35 360 3 gusting 8 15.0
2019-Jun-16 04:29 193 2 gusting 7 15.0
2019-Jun-16 04:25 200 3 gusting 9 15.0
2019-Jun-16 04:19 236 1 gusting 7 15.0
2019-Jun-16 04:14 211 2 gusting 10 15.0
2019-Jun-16 04:09 236 4 gusting 13 15.0
2019-Jun-16 04:04 225 0 gusting 13 15.0
2019-Jun-16 03:59 245 6 gusting 12 15.0
2019-Jun-16 03:54 205 5 gusting 13 15.0
2019-Jun-16 03:49 182 5 gusting 16 15.0
2019-Jun-16 03:44 162 6 gusting 18 15.0
2019-Jun-16 03:39 187 3 gusting 13 15.0
2019-Jun-16 03:34 252 6 gusting 15 15.0
2019-Jun-16 03:30 186 6 gusting 15 15.0
2019-Jun-16 03:24 209 6 gusting 13 15.0
2019-Jun-16 03:19 218 5 gusting 13 15.0
2019-Jun-16 03:14 198 2 gusting 18 15.0
2019-Jun-16 03:09 238 6 gusting 17 15.0
2019-Jun-16 03:04 219 3 gusting 12 15.0
2019-Jun-16 02:59 201 6 gusting 16 15.0
2019-Jun-16 02:54 179 7 gusting 19 15.0
2019-Jun-16 02:49 219 6 gusting 19 15.0
2019-Jun-16 02:44 226 7 gusting 15 15.0
2019-Jun-16 02:39 201 5 gusting 13 14.4
2019-Jun-16 02:35 242 6 gusting 17 14.4
2019-Jun-16 02:29 223 7 gusting 17 14.4
2019-Jun-16 02:25 210 2 gusting 19 14.4
2019-Jun-16 02:19 195 6 gusting 15 14.4
2019-Jun-16 02:14 208 6 gusting 11 14.4
2019-Jun-16 02:09 360 6 gusting 13 14.4
2019-Jun-16 02:05 211 6 gusting 13 14.4
2019-Jun-16 01:59 195 3 gusting 13 14.4
2019-Jun-16 01:55 204 4 gusting 11 14.4
2019-Jun-16 01:49 187 4 gusting 15 14.4
2019-Jun-16 01:44 197 4 gusting 13 14.4
2019-Jun-16 01:39 188 7 gusting 13 14.4
2019-Jun-16 01:34 273 5 gusting 13 14.4
2019-Jun-16 01:30 360 5 gusting 13 14.4
2019-Jun-16 01:24 202 4 gusting 13 14.4
2019-Jun-16 01:20 206 6 gusting 13 14.4
2019-Jun-16 01:14 360 4 gusting 18 14.4
2019-Jun-16 01:10 189 5 gusting 18 14.4
2019-Jun-16 01:04 221 2 gusting 19 14.4
2019-Jun-16 01:00 204 5 gusting 19 14.4
2019-Jun-16 00:54 209 2 gusting 11 14.4
2019-Jun-16 00:50 293 2 gusting 12 14.4
2019-Jun-16 00:44 212 4 gusting 12 14.4
2019-Jun-16 00:40 175 6 gusting 11 14.4
2019-Jun-16 00:34 360 4 gusting 17 15.0
2019-Jun-16 00:30 175 5 gusting 17 14.4
2019-Jun-16 00:24 249 5 gusting 13 14.4
2019-Jun-16 00:19 199 4 gusting 13 14.4
2019-Jun-16 00:14 203 6 gusting 13 14.4
2019-Jun-16 00:09 207 5 gusting 16 14.4
2019-Jun-16 00:04 196 4 gusting 16 14.4
2019-Jun-15 23:59 192 5 gusting 13 14.4
2019-Jun-15 23:54 215 5 gusting 19 14.4
2019-Jun-15 23:49 238 1 gusting 9 14.4
2019-Jun-15 23:44 197 4 gusting 9 14.4
2019-Jun-15 23:39 286 3 gusting 11 14.4
2019-Jun-15 23:35 247 4 gusting 11 14.4
2019-Jun-15 23:29 205 5 gusting 11 14.4
2019-Jun-15 23:25 208 3 gusting 11 14.4
2019-Jun-15 23:19 210 1 gusting 6 14.4
2019-Jun-15 23:14 185 1 gusting 9 14.4
2019-Jun-15 23:09 190 1 gusting 9 14.4
2019-Jun-15 23:04 202 4 gusting 10 14.4
2019-Jun-15 22:59 207 6 gusting 13 14.4
2019-Jun-15 22:55 200 3 gusting 13 14.4
2019-Jun-15 22:49 194 1 gusting 15 14.4
2019-Jun-15 22:45 360 8 gusting 15 14.4
2019-Jun-15 22:39 246 4 gusting 15 14.4
2019-Jun-15 22:34 186 5 gusting 13 14.4
2019-Jun-15 22:29 251 6 gusting 19 14.4
2019-Jun-15 22:24 217 6 gusting 19 15.0
2019-Jun-15 22:19 198 2 gusting 12 15.0
2019-Jun-15 22:14 201 4 gusting 13 15.0
2019-Jun-15 22:09 253 5 gusting 19 15.0
2019-Jun-15 22:04 217 11 gusting 19 15.0
2019-Jun-15 21:59 204 6 gusting 13 15.0
2019-Jun-15 21:54 218 4 gusting 13 15.0
2019-Jun-15 21:49 197 3 gusting 19 15.0
2019-Jun-15 21:44 215 4 gusting 19 15.0
2019-Jun-15 21:39 236 6 gusting 17 15.0
2019-Jun-15 21:34 209 6 gusting 28 15.0
2019-Jun-15 21:29 302 6 gusting 28 15.0
2019-Jun-15 21:24 219 9 gusting 22 15.0
2019-Jun-15 21:20 360 7 gusting 19 15.0
2019-Jun-15 21:14 175 8 gusting 19 15.0
2019-Jun-15 21:09 217 6 gusting 15 15.0
2019-Jun-15 21:04 240 6 gusting 19 15.0
2019-Jun-15 21:00 210 6 gusting 19 15.0
2019-Jun-15 20:54 231 7 gusting 19 15.0
2019-Jun-15 20:49 360 6 gusting 19 15.0
2019-Jun-15 20:44 258 8 gusting 26 15.0
2019-Jun-15 20:39 211 8 gusting 26 15.0
2019-Jun-15 20:34 211 6 gusting 19 15.0
2019-Jun-15 20:29 236 7 gusting 18 15.0
2019-Jun-15 20:25 236 6 gusting 21 15.0
2019-Jun-15 20:19 218 11 gusting 21 15.0
2019-Jun-15 20:15 360 9 gusting 19 15.0
2019-Jun-15 20:09 178 6 gusting 20 15.0
2019-Jun-15 20:04 190 6 gusting 20 15.0
2019-Jun-15 19:59 188 4 gusting 24 15.0
2019-Jun-15 19:54 190 8 gusting 24 15.0
2019-Jun-15 19:49 210 5 gusting 19 15.0
2019-Jun-15 19:45 205 5 gusting 19 15.0
2019-Jun-15 19:39 182 9 gusting 19 15.0
2019-Jun-15 19:34 270 6 gusting 22 15.0
2019-Jun-15 19:29 204 9 gusting 22 15.0
2019-Jun-15 19:24 191 8 gusting 19 15.0
2019-Jun-15 19:19 188 10 gusting 19 15.0
2019-Jun-15 19:15 213 7 gusting 22 15.0
2019-Jun-15 19:09 259 11 gusting 24 15.0
2019-Jun-15 19:04 314 7 gusting 24 15.0
2019-Jun-15 18:59 192 7 gusting 27 15.0
2019-Jun-15 18:54 179 11 gusting 27 15.0
2019-Jun-15 18:49 263 11 gusting 23 15.0
2019-Jun-15 18:44 277 10 gusting 20 15.0
2019-Jun-15 18:39 214 8 gusting 21 15.0
2019-Jun-15 18:34 311 9 gusting 26 15.0
2019-Jun-15 18:29 240 10 gusting 26 15.0
2019-Jun-15 18:24 271 7 gusting 21 15.0
2019-Jun-15 18:20 261 8 gusting 21 15.0
2019-Jun-15 18:14 246 6 gusting 24 15.0
2019-Jun-15 18:10 157 8 gusting 24 15.0
2019-Jun-15 18:04 210 7 gusting 22 15.0
2019-Jun-15 18:00 169 7 gusting 19 15.0
2019-Jun-15 17:54 196 9 gusting 21 15.0
2019-Jun-15 17:49 220 7 gusting 19 15.0
2019-Jun-15 17:44 263 6 gusting 20 15.0
2019-Jun-15 17:39 196 12 gusting 26 15.0
2019-Jun-15 17:34 311 8 gusting 19 15.0
2019-Jun-15 17:29 186 6 gusting 17 15.0
2019-Jun-15 17:24 236 9 gusting 18 15.0
2019-Jun-15 17:19 178 9 gusting 23 15.0
2019-Jun-15 17:14 217 9 gusting 24 15.0
2019-Jun-15 17:09 186 9 gusting 27 15.0
2019-Jun-15 17:04 360 10 gusting 27 15.0
2019-Jun-15 16:59 333 12 gusting 27 15.0
2019-Jun-15 16:54 198 6 gusting 20 15.0
2019-Jun-15 16:49 240 7 gusting 19 15.0
2019-Jun-15 16:44 257 7 gusting 23 15.0
2019-Jun-15 16:39 247 7 gusting 23 15.0
2019-Jun-15 16:34 032 8 gusting 20 15.0
2019-Jun-15 16:29 255 7 gusting 18 15.0
2019-Jun-15 16:24 210 7 gusting 19 15.0
2019-Jun-15 16:19 173 6 gusting 24 15.0
2019-Jun-15 16:14 156 11 gusting 24 15.0
2019-Jun-15 16:10 200 10 gusting 22 15.0
2019-Jun-15 16:04 199 7 gusting 25 15.0
2019-Jun-15 15:59 215 13 gusting 26 15.0
2019-Jun-15 15:54 187 13 gusting 26 15.0
2019-Jun-15 15:49 192 8 gusting 20 15.0
2019-Jun-15 15:44 178 7 gusting 20 15.0
2019-Jun-15 15:39 229 7 gusting 24 15.0
2019-Jun-15 15:34 273 7 gusting 26 15.0
2019-Jun-15 15:30 178 6 gusting 26 15.0
2019-Jun-15 15:24 245 7 gusting 19 15.0
2019-Jun-15 15:20 165 6 gusting 26 15.0
2019-Jun-15 15:14 254 13 gusting 26 15.0
2019-Jun-15 15:10 221 11 gusting 29 15.0
2019-Jun-15 15:04 168 10 gusting 24 15.0
2019-Jun-15 15:00 209 9 gusting 24 15.0
2019-Jun-15 14:54 201 7 gusting 18 15.6
2019-Jun-15 14:49 215 7 gusting 28 15.0
2019-Jun-15 14:44 186 9 gusting 36 15.0
2019-Jun-15 14:39 252 12 gusting 36 15.0
2019-Jun-15 14:34 311 12 gusting 33 15.0
2019-Jun-15 14:30 238 8 gusting 33 15.0
2019-Jun-15 14:24 211 8 gusting 19 15.0
2019-Jun-15 14:19 242 8 gusting 26 15.0
2019-Jun-15 14:14 212 12 gusting 27 15.0
2019-Jun-15 14:09 248 13 gusting 27 15.0
2019-Jun-15 14:04 184 9 gusting 26 15.0
2019-Jun-15 13:59 169 10 gusting 26 15.0
2019-Jun-15 13:54 227 11 gusting 23 15.0
2019-Jun-15 13:49 238 7 gusting 24 15.0
2019-Jun-15 13:44 184 7 gusting 24 15.0
2019-Jun-15 13:39 171 9 gusting 20 15.0
2019-Jun-15 13:35 173 7 gusting 19 15.0
2019-Jun-15 13:29 201 7 gusting 29 14.4
2019-Jun-15 13:25 265 8 gusting 27 15.0
2019-Jun-15 13:19 182 12 gusting 27 15.0
2019-Jun-15 13:15 270 17 gusting 27 15.0
2019-Jun-15 13:09 197 8 gusting 22 15.0
2019-Jun-15 13:05 202 10 gusting 22 14.4
2019-Jun-15 12:59 226 8 gusting 27 14.4
2019-Jun-15 12:55 149 13 gusting 27 14.4
2019-Jun-15 12:49 360 8 gusting 29 15.0
2019-Jun-15 12:44 188 10 gusting 31 15.0
2019-Jun-15 12:39 188 12 gusting 30 15.0
2019-Jun-15 12:35 263 13 gusting 30 15.0
2019-Jun-15 12:29 182 12 gusting 23 14.4
2019-Jun-15 12:25 182 8 gusting 28 14.4
2019-Jun-15 12:19 227 13 gusting 30 14.4
2019-Jun-15 12:14 198 12 gusting 30 15.0
2019-Jun-15 12:09 189 6 gusting 26 15.0
2019-Jun-15 12:04 184 13 gusting 27 15.0
2019-Jun-15 11:59 189 13 gusting 27 15.0
2019-Jun-15 11:54 169 9 gusting 27 15.0
2019-Jun-15 11:49 272 7 gusting 27 15.6
2019-Jun-15 11:44 207 13 gusting 27 15.6
2019-Jun-15 11:40 360 16 gusting 40 15.6
2019-Jun-15 11:34 202 15 gusting 40 15.6
2019-Jun-15 11:30 194 7 gusting 23 15.6
2019-Jun-15 11:24 193 13 gusting 32 15.6
2019-Jun-15 11:20 238 11 gusting 33 16.1
2019-Jun-15 11:14 178 12 gusting 33 16.7
2019-Jun-15 11:10 198 13 gusting 28 16.7
2019-Jun-15 11:04 214 13 gusting 24 16.7
2019-Jun-15 11:00 360 10 gusting 29 16.1
2019-Jun-15 10:54 186 14 gusting 29 16.1
2019-Jun-15 10:49 258 13 gusting 29 15.6
2019-Jun-15 10:44 173 13 gusting 29 15.6
2019-Jun-15 10:39 150 12 gusting 29 16.1
2019-Jun-15 10:34 223 13 gusting 30 16.1
2019-Jun-15 10:29 175 13 gusting 30 16.1
2019-Jun-15 10:24 181 10 gusting 26 15.6
2019-Jun-15 10:19 360 11 gusting 38 15.6
2019-Jun-15 10:14 234 13 gusting 38 15.0
2019-Jun-15 10:09 203 12 gusting 26 15.0
2019-Jun-15 10:04 266 11 gusting 27 15.0
2019-Jun-15 09:59 212 6 gusting 25 15.0
2019-Jun-15 09:54 185 6 gusting 25 15.0
2019-Jun-15 09:50 170 8 gusting 19 15.0
2019-Jun-15 09:44 253 7 gusting 26 15.0
2019-Jun-15 09:40 184 7 gusting 26 14.4
2019-Jun-15 09:34 190 11 gusting 25 14.4
2019-Jun-15 09:30 275 11 gusting 22 14.4
2019-Jun-15 09:24 227 9 gusting 22 14.4
2019-Jun-15 09:20 290 9 gusting 28 14.4
2019-Jun-15 09:14 119 9 gusting 28 14.4
2019-Jun-15 09:09 186 11 gusting 25 14.4
2019-Jun-15 09:04 259 6 gusting 24 14.4
2019-Jun-15 09:00 224 6 gusting 19 14.4
2019-Jun-15 08:54 177 10 gusting 20 14.4
2019-Jun-15 08:49 360 10 gusting 18 14.4
2019-Jun-15 08:44 360 4 gusting 11 14.4
2019-Jun-15 08:40 274 4 gusting 19 14.4
2019-Jun-15 08:34 223 6 gusting 19 13.9
2019-Jun-15 08:29 197 7 gusting 19 13.9
2019-Jun-15 08:24 246 9 gusting 22 14.4
2019-Jun-15 08:20 251 11 gusting 22 14.4
2019-Jun-15 08:14 194 6 gusting 21 14.4
2019-Jun-15 08:09 190 10 gusting 22 14.4
2019-Jun-15 08:04 196 9 gusting 22 14.4
2019-Jun-15 07:59 211 7 gusting 21 14.4
2019-Jun-15 07:55 223 6 gusting 17 14.4
2019-Jun-15 07:49 212 8 gusting 16 14.4
2019-Jun-15 07:44 215 6 gusting 15 14.4
2019-Jun-15 07:39 197 5 gusting 15 14.4
2019-Jun-15 07:35 185 4 gusting 13 13.9
2019-Jun-15 07:29 205 4 gusting 12 13.9
2019-Jun-15 07:25 220 5 gusting 12 13.9
2019-Jun-15 07:19 215 6 gusting 12 13.9
2019-Jun-15 07:15 204 3 gusting 16 13.9
2019-Jun-15 07:09 203 6 gusting 16 13.9
2019-Jun-15 07:04 166 6 gusting 24 14.4
2019-Jun-15 06:59 303 10 gusting 27 14.4
2019-Jun-15 06:55 220 12 gusting 29 15.0
2019-Jun-15 06:49 201 10 gusting 29 15.0
2019-Jun-15 06:45 145 7 gusting 19 15.0
2019-Jun-15 06:39 209 8 gusting 16 15.0
2019-Jun-15 06:35 187 5 gusting 22 15.0
2019-Jun-15 06:29 213 6 gusting 22 15.0
2019-Jun-15 06:24 200 6 gusting 19 15.0
2019-Jun-15 06:19 217 11 gusting 19 15.0
2019-Jun-15 06:14 209 7 gusting 19 15.0
2019-Jun-15 06:09 285 4 gusting 22 14.4
2019-Jun-15 06:04 215 11 gusting 22 14.4
2019-Jun-15 06:00 194 3 gusting 19 14.4
2019-Jun-15 05:54 360 7 gusting 19 14.4
2019-Jun-15 05:50 192 8 gusting 19 14.4
2019-Jun-15 05:44 271 7 gusting 15 14.4
2019-Jun-15 05:40 360 5 gusting 15 14.4
2019-Jun-15 05:34 248 4 gusting 17 14.4
2019-Jun-15 05:29 171 5 gusting 16 14.4
2019-Jun-15 05:24 257 6 gusting 15 14.4
2019-Jun-15 05:19 188 2 gusting 12 14.4
2019-Jun-15 05:14 151 5 gusting 19 14.4
2019-Jun-15 05:09 229 4 gusting 19 13.9
2019-Jun-15 05:04 209 5 gusting 13 13.9
2019-Jun-15 04:59 199 3 gusting 12 13.9
2019-Jun-15 04:55 215 3 gusting 13 13.9
2019-Jun-15 04:49 360 6 gusting 13 13.9
2019-Jun-15 04:44 234 4 gusting 12 13.9
2019-Jun-15 04:39 207 5 gusting 15 13.9
2019-Jun-15 04:34 187 5 gusting 15 13.9
2019-Jun-15 04:29 205 2 gusting 13 13.9
2019-Jun-15 04:25 189 4 gusting 13 13.9
2019-Jun-15 04:19 229 1 gusting 10 13.9
2019-Jun-15 04:15 207 3 gusting 10 13.9
2019-Jun-15 04:09 246 3 gusting 13 13.9
2019-Jun-15 04:05 194 4 gusting 12 13.9
2019-Jun-15 03:59 200 5 gusting 16 13.9
2019-Jun-15 03:55 252 6 gusting 24 13.9
2019-Jun-15 03:49 198 7 gusting 13 13.9
2019-Jun-15 03:45 274 6 gusting 15 13.9
2019-Jun-15 03:39 181 6 gusting 15 13.9
2019-Jun-15 03:34 202 6 gusting 20 13.9
2019-Jun-15 03:29 207 6 gusting 20 13.9
2019-Jun-15 03:24 200 2 gusting 13 13.9
2019-Jun-15 03:19 186 2 gusting 9 13.9
2019-Jun-15 03:14 250 3 gusting 18 13.9
2019-Jun-15 03:09 251 6 gusting 18 13.9
2019-Jun-15 03:04 192 6 gusting 15 13.9
2019-Jun-15 02:59 221 4 gusting 15 13.9
2019-Jun-15 02:54 180 6 gusting 18 13.9
2019-Jun-15 02:49 319 6 gusting 18 13.9
2019-Jun-15 02:44 194 5 gusting 12 13.9
2019-Jun-15 02:39 188 3 gusting 16 13.9
2019-Jun-15 02:34 193 4 gusting 16 13.9
2019-Jun-15 02:29 192 3 gusting 10 13.9
2019-Jun-15 02:24 273 5 gusting 12 13.9
2019-Jun-15 02:19 166 5 gusting 13 13.9
2019-Jun-15 02:15 260 4 gusting 15 13.9
2019-Jun-15 02:09 105 6 gusting 15 13.9
2019-Jun-15 02:05 208 3 gusting 12 13.9
2019-Jun-15 01:59 360 6 gusting 13 13.9
2019-Jun-15 01:55 360 5 gusting 13 13.9
2019-Jun-15 01:49 360 5 gusting 13 13.9
2019-Jun-15 01:45 236 6 gusting 13 13.9
2019-Jun-15 01:39 188 2 gusting 15 13.9
2019-Jun-15 01:35 250 4 gusting 15 13.9
2019-Jun-15 01:29 192 5 gusting 12 13.9
2019-Jun-15 01:24 182 4 gusting 12 13.9
2019-Jun-15 01:19 287 4 gusting 15 13.9
2019-Jun-15 01:14 198 6 gusting 15 13.9
2019-Jun-15 01:09 197 4 gusting 15 13.9
2019-Jun-15 01:04 211 6 gusting 13 13.9
2019-Jun-15 00:59 209 6 gusting 11 13.9
2019-Jun-15 00:54 360 2 gusting 11 13.9
2019-Jun-15 00:49 267 3 gusting 11 13.9
2019-Jun-15 00:44 221 3 gusting 11 13.9
2019-Jun-15 00:39 246 1 gusting 7 13.9
2019-Jun-15 00:34 191 1 gusting 10 13.9
2019-Jun-15 00:29 214 1 gusting 7 13.9
2019-Jun-15 00:24 178 4 gusting 11 14.4
2019-Jun-15 00:20 360 2 gusting 13 14.4
2019-Jun-15 00:14 360 5 gusting 17 14.4
2019-Jun-15 00:09 223 7 gusting 17 14.4
2019-Jun-15 00:04 360 6 gusting 9 14.4
2019-Jun-14 23:59 196 5 gusting 15 14.4
2019-Jun-14 23:54 200 2 gusting 16 14.4
2019-Jun-14 23:49 206 6 gusting 16 14.4
2019-Jun-14 23:44 216 6 gusting 19 14.4
2019-Jun-14 23:39 275 5 gusting 19 14.4
2019-Jun-14 23:34 191 6 gusting 17 14.4
2019-Jun-14 23:29 209 6 gusting 13 14.4
2019-Jun-14 23:25 244 5 gusting 12 14.4
2019-Jun-14 23:19 196 2 gusting 11 14.4
2019-Jun-14 23:15 210 3 gusting 13 14.4
2019-Jun-14 23:09 196 2 gusting 11 14.4
2019-Jun-14 23:05 204 4 gusting 11 14.4
2019-Jun-14 22:59 182 5 gusting 13 14.4
2019-Jun-14 22:55 190 0 gusting 13 14.4
2019-Jun-14 22:49 191 1 gusting 6 14.4
2019-Jun-14 22:44 191 0 gusting 6 14.4
2019-Jun-14 22:39 191 2 gusting 6 14.4
2019-Jun-14 22:34 190 1 gusting 7 14.4
2019-Jun-14 22:29 190 2 gusting 7 14.4
2019-Jun-14 22:24 197 1 gusting 7 14.4
2019-Jun-14 22:20 194 2 gusting 7 13.9
2019-Jun-14 22:14 192 1 gusting 7 13.9
2019-Jun-14 22:09 193 1 gusting 5 13.9
2019-Jun-14 22:04 196 0 gusting 6 13.9
2019-Jun-14 21:59 195 0 gusting 6 13.9
2019-Jun-14 21:55 194 0 gusting 6 13.9
2019-Jun-14 21:49 193 13.9
2019-Jun-14 21:45 360 1 gusting 6 13.9
2019-Jun-14 21:39 204 0 gusting 4 13.9
2019-Jun-14 21:34 203 0 gusting 4 13.9
2019-Jun-14 21:29 203 13.9
2019-Jun-14 21:24 202 2 gusting 6 13.9
2019-Jun-14 21:19 180 2 gusting 6 13.9
2019-Jun-14 21:14 194 0 gusting 6 13.9
2019-Jun-14 21:09 194 0 gusting 6 13.9
2019-Jun-14 21:04 194 1 gusting 6 13.9
2019-Jun-14 21:00 242 1 gusting 11 13.9
2019-Jun-14 20:54 274 3 gusting 11 13.9
2019-Jun-14 20:49 190 0 gusting 6 13.9
2019-Jun-14 20:44 184 0 gusting 6 13.9
2019-Jun-14 20:40 184 1 gusting 6 13.9
2019-Jun-14 20:34 183 1 gusting 6 13.9
2019-Jun-14 20:30 195 13.9
2019-Jun-14 20:24 360 13.9
2019-Jun-14 20:20 225 13.9
2019-Jun-14 20:14 225 0 gusting 6 13.9
2019-Jun-14 20:09 225 1 gusting 7 14.4
2019-Jun-14 20:04 215 2 gusting 7 14.4
2019-Jun-14 19:59 208 14.4
2019-Jun-14 19:54 208 2 gusting 6 14.4
2019-Jun-14 19:49 229 1 gusting 8 14.4
2019-Jun-14 19:45 247 3 gusting 8 14.4
2019-Jun-14 19:39 256 4 gusting 9 15.0
2019-Jun-14 19:35 211 4 gusting 9 15.0
2019-Jun-14 19:29 215 2 gusting 11 15.0
2019-Jun-14 19:25 271 2 gusting 11 15.0
2019-Jun-14 19:19 200 3 gusting 9 15.0
2019-Jun-14 19:15 360 1 gusting 11 15.0
2019-Jun-14 19:08 211 2 gusting 19 15.0
2019-Jun-14 19:05 212 4 gusting 19 15.0
2019-Jun-14 18:59 266 4 gusting 17 15.6
2019-Jun-14 18:53 360 6 gusting 15 15.6
2019-Jun-14 18:49 211 6 gusting 15 15.6
2019-Jun-14 18:44 213 4 gusting 11 15.6
2019-Jun-14 18:39 243 5 gusting 19 15.6
2019-Jun-14 18:34 221 8 gusting 19 15.6
2019-Jun-14 18:29 184 6 gusting 17 15.6
2019-Jun-14 18:24 215 7 gusting 17 16.1
2019-Jun-14 18:19 179 5 gusting 15 16.1
2019-Jun-14 18:14 195 6 gusting 17 16.1
2019-Jun-14 18:10 309 8 gusting 17 16.7
2019-Jun-14 18:04 202 5 gusting 16 16.7
2019-Jun-14 18:00 215 6 gusting 16 16.7
2019-Jun-14 17:54 211 8 gusting 19 16.7
2019-Jun-14 17:49 350 6 gusting 19 16.7
2019-Jun-14 17:44 240 6 gusting 15 16.7
2019-Jun-14 17:39 286 6 gusting 20 16.7
2019-Jun-14 17:34 360 9 gusting 24 16.7
2019-Jun-14 17:29 360 6 gusting 26 16.7
2019-Jun-14 17:24 211 7 gusting 26 16.7
2019-Jun-14 17:19 191 8 gusting 19 16.7
2019-Jun-14 17:15 215 8 gusting 19 16.7
2019-Jun-14 17:08 279 6 gusting 23 16.7
2019-Jun-14 17:04 261 11 gusting 23 16.7
2019-Jun-14 16:59 225 7 gusting 19 16.7
2019-Jun-14 16:55 202 8 gusting 22 16.1
2019-Jun-14 16:49 227 10 gusting 25 16.7
2019-Jun-14 16:44 180 5 gusting 25 17.2
2019-Jun-14 16:39 148 6 gusting 13 17.2
2019-Jun-14 16:35 360 6 gusting 13 17.2
2019-Jun-14 16:29 208 5 gusting 24 16.7
2019-Jun-14 16:24 203 6 gusting 24 16.7
2019-Jun-14 16:19 196 4 gusting 16 16.7
2019-Jun-14 16:15 209 6 gusting 16 17.2
2019-Jun-14 16:09 302 5 gusting 19 16.7
2019-Jun-14 16:00 271 9 gusting 17 17.2
2019-Jun-14 15:59 167 6 gusting 17 17.2
2019-Jun-14 15:55 194 6 gusting 15 17.2
2019-Jun-14 15:49 198 4 gusting 19 17.2
2019-Jun-14 15:45 177 8 gusting 19 17.2
2019-Jun-14 15:39 211 8 gusting 22 17.2
2019-Jun-14 15:34 175 8 gusting 22 17.2
2019-Jun-14 15:29 167 7 gusting 18 17.2
2019-Jun-14 15:24 208 6 gusting 21 17.2
2019-Jun-14 15:19 212 11 gusting 19 17.2
2019-Jun-14 15:15 182 8 gusting 19 17.8
2019-Jun-14 15:09 360 6 gusting 19 17.2
2019-Jun-14 15:04 203 8 gusting 21 17.2
2019-Jun-14 14:59 190 7 gusting 24 17.2
2019-Jun-14 14:54 182 8 gusting 20 17.8
2019-Jun-14 14:49 267 4 gusting 19 17.8
2019-Jun-14 14:44 202 7 gusting 24 17.8
2019-Jun-14 14:40 184 6 gusting 24 17.8
2019-Jun-14 14:34 212 8 gusting 22 17.8
2019-Jun-14 14:29 360 8 gusting 23 17.8
2019-Jun-14 14:24 190 7 gusting 23 17.2
2019-Jun-14 14:19 360 7 gusting 22 17.8
2019-Jun-14 14:15 217 11 gusting 22 17.8
2019-Jun-14 14:09 171 8 gusting 21 17.8
2019-Jun-14 14:05 279 8 gusting 26 17.8
2019-Jun-14 13:59 222 10 gusting 27 17.2
2019-Jun-14 13:55 164 14 gusting 27 17.8
2019-Jun-14 13:49 218 9 gusting 21 17.8
2019-Jun-14 13:45 225 8 gusting 20 17.8
2019-Jun-14 13:39 360 7 gusting 20 17.8
2019-Jun-14 13:35 190 7 gusting 19 17.8
2019-Jun-14 13:29 157 6 gusting 20 17.8
2019-Jun-14 13:24 180 11 gusting 20 17.2
2019-Jun-14 13:19 193 3 gusting 26 17.2
2019-Jun-14 13:14 181 8 gusting 26 17.2
2019-Jun-14 13:09 214 13 gusting 22 17.2
2019-Jun-14 13:04 202 7 gusting 24 17.2
2019-Jun-14 12:59 199 13 gusting 26 17.2
2019-Jun-14 12:54 206 6 gusting 26 17.2
2019-Jun-14 12:50 217 8 gusting 19 17.2
2019-Jun-14 12:44 251 5 gusting 21 17.2
2019-Jun-14 12:40 190 8 gusting 21 17.2
2019-Jun-14 12:34 216 10 gusting 26 17.2
2019-Jun-14 12:29 157 9 gusting 29 17.2
2019-Jun-14 12:24 184 9 gusting 29 17.2
2019-Jun-14 12:20 285 6 gusting 25 17.2
2019-Jun-14 12:14 175 12 gusting 25 17.2
2019-Jun-14 12:10 139 11 gusting 23 17.2
2019-Jun-14 12:04 192 6 gusting 17 17.2
2019-Jun-14 11:59 196 6 gusting 21 17.2
2019-Jun-14 11:54 331 5 gusting 15 17.2
2019-Jun-14 11:49 215 6 gusting 20 16.7
2019-Jun-14 11:44 244 6 gusting 20 16.7
2019-Jun-14 11:40 208 8 gusting 19 17.2
2019-Jun-14 11:34 196 6 gusting 18 16.1
2019-Jun-14 11:30 234 5 gusting 24 16.1
2019-Jun-14 11:24 197 13 gusting 24 16.1
2019-Jun-14 11:20 189 6 gusting 16 16.1
2019-Jun-14 11:14 212 3 gusting 15 16.1
2019-Jun-14 11:09 204 6 gusting 13 15.6
2019-Jun-14 11:04 305 7 gusting 19 15.6
2019-Jun-14 10:59 252 11 gusting 20 15.6
2019-Jun-14 10:54 261 8 gusting 26 16.7
2019-Jun-14 10:49 199 7 gusting 26 16.7
2019-Jun-14 10:44 202 12 gusting 26 17.2
2019-Jun-14 10:40 182 7 gusting 19 17.2
2019-Jun-14 10:34 177 7 gusting 19 16.7
2019-Jun-14 10:30 360 9 gusting 18 17.2